| time (UTC) | temp C | wind direction | speed KPH | gust KPH | rain 1hr cm | rain 24hr cm | rain mn cm | humidity % | barometer mb |
| 20260902220704 | 20 | 301 | 9.7 | 12.9 | 0.00 | 0.00 | 0.00 | 50 | 1009.2 |
| 20260902220205 | 20 | 337 | 8.0 | 14.5 | 0.00 | 0.00 | 0.00 | 51 | 1009.3 |
| 20260902215705 | 20 | 314 | 8.0 | 14.5 | 0.00 | 0.00 | 0.00 | 50 | 1009.1 |
| 20260902215205 | 20 | 326 | 9.7 | 14.5 | 0.00 | 0.00 | 0.00 | 51 | 1009.1 |
| 20260902214705 | 20 | 324 | 9.7 | 12.9 | 0.00 | 0.00 | 0.00 | 51 | 1009.1 |
| 20260902214205 | 20 | 328 | 9.7 | 12.9 | 0.00 | 0.00 | 0.00 | 51 | 1009.3 |
| 20260902213705 | 20 | 317 | 8.0 | 9.7 | 0.00 | 0.00 | 0.00 | 51 | 1009.3 |
| 20260902212204 | 20 | 342 | 11.3 | 14.5 | 0.00 | 0.00 | 0.00 | 51 | 1009.2 |
| 20260902211204 | 20 | 324 | 9.7 | 12.9 | 0.00 | 0.00 | 0.00 | 52 | 1009.5 |
| 20260902210704 | 20 | 325 | 9.7 | 11.3 | 0.00 | 0.00 | 0.00 | 53 | 1009.6 |
| 20260902210205 | 19 | 334 | 9.7 | 12.9 | 0.00 | 0.00 | 0.00 | 53 | 1009.2 |
| 20260902205704 | 19 | 337 | 11.3 | 16.1 | 0.00 | 0.00 | 0.00 | 53 | 1009.2 |
| 20260902205204 | 19 | 345 | 11.3 | 16.1 | 0.00 | 0.00 | 0.00 | 54 | 1009.2 |
| 20260902204705 | 18 | 343 | 12.9 | 16.1 | 0.00 | 0.00 | 0.00 | 54 | 1009.1 |
| 20260902203704 | 18 | 343 | 12.9 | 14.5 | 0.00 | 0.00 | 0.00 | 56 | 1008.9 |
| 20260902202704 | 18 | 333 | 11.3 | 14.5 | 0.00 | 0.00 | 0.00 | 56 | 1009.1 |
| 20260902202204 | 18 | 334 | 11.3 | 14.5 | 0.00 | 0.00 | 0.00 | 56 | 1009.1 |
| 20260902201204 | 18 | 330 | 14.5 | 19.3 | 0.00 | 0.00 | 0.00 | 56 | 1009.3 |
| 20260902200704 | 19 | 343 | 14.5 | 19.3 | 0.00 | 0.00 | 0.00 | 56 | 1009.5 |
| 20260902195704 | 19 | 351 | 16.1 | 19.3 | 0.00 | 0.00 | 0.00 | 55 | 1009.2 |
| 20260902194704 | 19 | 354 | 11.3 | 16.1 | 0.00 | 0.00 | 0.00 | 55 | 1009.3 |
| 20260902193705 | 18 | 5 | 14.5 | 19.3 | 0.00 | 0.00 | 0.00 | 55 | 1009.3 |
| 20260902193205 | 18 | 0 | 9.7 | 14.5 | 0.00 | 0.00 | 0.00 | 57 | 1009.3 |
| 20260902192704 | 18 | 348 | 14.5 | 19.3 | 0.00 | 0.00 | 0.00 | 56 | 1009.5 |
| 20260902192204 | 18 | 345 | 11.3 | 16.1 | 0.00 | 0.00 | 0.00 | 56 | 1009.3 |
| 20260902191704 | 18 | 348 | 9.7 | 19.3 | 0.00 | 0.00 | 0.00 | 56 | 1009.3 |
| 20260902191204 | 19 | 347 | 17.7 | 24.1 | 0.00 | 0.00 | 0.00 | 54 | 1009.4 |
| 20260902190705 | 19 | 347 | 19.3 | 24.1 | 0.00 | 0.00 | 0.00 | 54 | 1009.7 |
| 20260902190204 | 19 | 332 | 17.7 | 20.9 | 0.00 | 0.00 | 0.00 | 54 | 1010.2 |
| 20260902185705 | 19 | 329 | 14.5 | 19.3 | 0.00 | 0.00 | 0.00 | 53 | 1010.2 |
| 20260902185205 | 19 | 328 | 17.7 | 19.3 | 0.00 | 0.00 | 0.00 | 51 | 1010.2 |
| 20260902184705 | 19 | 330 | 14.5 | 19.3 | 0.00 | 0.00 | 0.00 | 51 | 1010.3 |
| 20260902184204 | 20 | 333 | 12.9 | 16.1 | 0.00 | 0.00 | 0.00 | 50 | 1010.3 |
| 20260902183204 | 20 | 312 | 11.3 | 14.5 | 0.00 | 0.00 | 0.00 | 50 | 1010.2 |
| 20260902182704 | 19 | 309 | 12.9 | 19.3 | 0.00 | 0.00 | 0.00 | 51 | 1010.4 |
| 20260902182205 | 19 | 308 | 12.9 | 19.3 | 0.00 | 0.00 | 0.00 | 51 | 1010.5 |
| 20260902181704 | 19 | 283 | 14.5 | 20.9 | 0.00 | 0.00 | 0.00 | 53 | 1011.1 |
| 20260902181205 | 19 | 279 | 14.5 | 19.3 | 0.00 | 0.00 | 0.00 | 53 | 1011.2 |
| 20260902180705 | 19 | 268 | 16.1 | 19.3 | 0.00 | 0.00 | 0.00 | 53 | 1011.0 |
| 20260902180204 | 19 | 267 | 16.1 | 20.9 | 0.00 | 0.00 | 0.00 | 52 | 1010.8 |
| 20260902175704 | 19 | 277 | 11.3 | 14.5 | 0.00 | 0.00 | 0.00 | 50 | 1010.5 |
| 20260902175204 | 19 | 292 | 9.7 | 12.9 | 0.00 | 0.00 | 0.00 | 50 | 1010.3 |
| 20260902174704 | 19 | 294 | 11.3 | 12.9 | 0.00 | 0.00 | 0.00 | 50 | 1010.3 |
| 20260902174204 | 19 | 309 | 11.3 | 14.5 | 0.00 | 0.00 | 0.00 | 50 | 1010.2 |
| 20260902173704 | 19 | 313 | 12.9 | 14.5 | 0.00 | 0.00 | 0.00 | 50 | 1010.3 |
| 20260902173204 | 19 | 320 | 12.9 | 16.1 | 0.00 | 0.00 | 0.00 | 50 | 1010.4 |
| 20260902172704 | 19 | 320 | 14.5 | 19.3 | 0.00 | 0.00 | 0.00 | 50 | 1010.1 |
| 20260902172204 | 19 | 328 | 14.5 | 20.9 | 0.00 | 0.00 | 0.00 | 51 | 1010.2 |
| 20260902171204 | 19 | 320 | 19.3 | 24.1 | 0.00 | 0.00 | 0.00 | 51 | 1010.3 |
| 20260902170722 | 19 | 321 | 19.3 | 24.1 | 0.00 | 0.00 | 0.00 | 51 | 1010.4 |
| 20260902170213 | 19 | 315 | 16.1 | 22.5 | 0.00 | 0.00 | 0.00 | 51 | 1010.4 |
| 20260902165707 | 19 | 300 | 16.1 | 24.1 | 0.00 | 0.00 | 0.00 | 51 | 1010.6 |
| 20260902165207 | 19 | 301 | 14.5 | 20.9 | 0.00 | 0.00 | 0.00 | 50 | 1010.4 |
| 20260902164707 | 19 | 302 | 16.1 | 22.5 | 0.00 | 0.00 | 0.00 | 50 | 1010.8 |
| 20260902164207 | 19 | 301 | 14.5 | 20.9 | 0.00 | 0.00 | 0.00 | 50 | 1010.8 |
| 20260902163707 | 19 | 308 | 14.5 | 20.9 | 0.00 | 0.00 | 0.00 | 50 | 1010.9 |
| 20260902162706 | 19 | 299 | 14.5 | 19.3 | 0.00 | 0.00 | 0.00 | 50 | 1011.1 |
| 20260902162207 | 19 | 294 | 12.9 | 19.3 | 0.00 | 0.00 | 0.00 | 51 | 1011.3 |
| 20260902161206 | 19 | 294 | 14.5 | 20.9 | 0.00 | 0.00 | 0.00 | 51 | 1011.4 |
| 20260902160707 | 19 | 297 | 16.1 | 20.9 | 0.00 | 0.00 | 0.00 | 51 | 1011.1 |
| 20260902160207 | 18 | 295 | 16.1 | 19.3 | 0.00 | 0.00 | 0.00 | 51 | 1011.4 |
| 20260902155706 | 18 | 306 | 16.1 | 19.3 | 0.00 | 0.00 | 0.00 | 52 | 1011.4 |
| 20260902155206 | 18 | 306 | 16.1 | 20.9 | 0.00 | 0.00 | 0.00 | 52 | 1011.5 |
| 20260902154206 | 18 | 312 | 16.1 | 19.3 | 0.00 | 0.00 | 0.00 | 52 | 1011.8 |
| 20260902153707 | 18 | 307 | 16.1 | 19.3 | 0.00 | 0.00 | 0.00 | 52 | 1011.6 |
| 20260902153207 | 18 | 306 | 14.5 | 19.3 | 0.00 | 0.00 | 0.00 | 52 | 1011.8 |
| 20260902152706 | 18 | 307 | 14.5 | 19.3 | 0.00 | 0.00 | 0.00 | 52 | 1011.7 |
| 20260902152207 | 18 | 314 | 14.5 | 16.1 | 0.00 | 0.00 | 0.00 | 52 | 1011.8 |
| 20260902151707 | 18 | 319 | 14.5 | 16.1 | 0.00 | 0.00 | 0.00 | 51 | 1011.7 |
| 20260902151207 | 18 | 321 | 11.3 | 14.5 | 0.00 | 0.00 | 0.00 | 51 | 1012.1 |
| 20260902150707 | 19 | 320 | 11.3 | 12.9 | 0.00 | 0.00 | 0.00 | 50 | 1012.1 |
| 20260902150207 | 19 | 317 | 12.9 | 16.1 | 0.00 | 0.00 | 0.00 | 49 | 1012.2 |
| 20260902145707 | 19 | 318 | 14.5 | 19.3 | 0.00 | 0.00 | 0.00 | 49 | 1012.1 |
| 20260902145206 | 19 | 316 | 11.3 | 12.9 | 0.00 | 0.00 | 0.00 | 49 | 1012.2 |
| 20260902144706 | 19 | 325 | 11.3 | 11.3 | 0.00 | 0.00 | 0.00 | 49 | 1012.3 |
| 20260902144206 | 19 | 328 | 11.3 | 11.3 | 0.00 | 0.00 | 0.00 | 49 | 1012.3 |
| 20260902143707 | 19 | 328 | 11.3 | 12.9 | 0.00 | 0.00 | 0.00 | 49 | 1012.4 |
| 20260902143207 | 19 | 341 | 11.3 | 12.9 | 0.00 | 0.00 | 0.00 | 49 | 1012.4 |
| 20260902142706 | 19 | 341 | 11.3 | 12.9 | 0.00 | 0.00 | 0.00 | 49 | 1012.5 |
| 20260902142207 | 19 | 341 | 11.3 | 12.9 | 0.00 | 0.00 | 0.00 | 49 | 1012.5 |
| 20260902141706 | 19 | 341 | 9.7 | 12.9 | 0.00 | 0.00 | 0.00 | 49 | 1012.6 |
| 20260902140706 | 19 | 341 | 9.7 | 11.3 | 0.00 | 0.00 | 0.00 | 51 | 1012.8 |
| 20260902140207 | 19 | 341 | 11.3 | 12.9 | 0.00 | 0.00 | 0.00 | 50 | 1013.0 |
| 20260902135707 | 19 | 341 | 11.3 | 12.9 | 0.00 | 0.00 | 0.00 | 49 | 1013.1 |
| 20260902135206 | 19 | 341 | 9.7 | 11.3 | 0.00 | 0.00 | 0.00 | 49 | 1013.1 |
| 20260902134707 | 20 | 341 | 9.7 | 12.9 | 0.00 | 0.00 | 0.00 | 49 | 1012.9 |
| 20260902134206 | 20 | 339 | 11.3 | 12.9 | 0.00 | 0.00 | 0.00 | 47 | 1012.8 |
| 20260902133706 | 20 | 339 | 11.3 | 14.5 | 0.00 | 0.00 | 0.00 | 46 | 1012.8 |
| 20260902133207 | 20 | 338 | 12.9 | 14.5 | 0.00 | 0.00 | 0.00 | 46 | 1012.9 |
| 20260902132707 | 20 | 339 | 12.9 | 14.5 | 0.00 | 0.00 | 0.00 | 45 | 1013.0 |
| 20260902132206 | 20 | 334 | 12.9 | 16.1 | 0.00 | 0.00 | 0.00 | 44 | 1013.3 |
| 20260902131707 | 20 | 332 | 14.5 | 19.3 | 0.00 | 0.00 | 0.00 | 44 | 1013.2 |
| 20260902131206 | 20 | 334 | 14.5 | 16.1 | 0.00 | 0.00 | 0.00 | 44 | 1013.2 |
| 20260902130207 | 21 | 339 | 14.5 | 16.1 | 0.00 | 0.00 | 0.00 | 42 | 1013.3 |
| 20260902125707 | 21 | 334 | 16.1 | 19.3 | 0.00 | 0.00 | 0.00 | 42 | 1013.5 |
| 20260902125206 | 21 | 331 | 16.1 | 19.3 | 0.00 | 0.00 | 0.00 | 41 | 1013.5 |
| 20260902124706 | 21 | 330 | 17.7 | 19.3 | 0.00 | 0.00 | 0.00 | 41 | 1013.4 |
| 20260902124206 | 21 | 325 | 16.1 | 19.3 | 0.00 | 0.00 | 0.00 | 41 | 1013.5 |
| 20260902123707 | 21 | 322 | 14.5 | 16.1 | 0.00 | 0.00 | 0.00 | 40 | 1013.6 |
| 20260902123206 | 21 | 321 | 14.5 | 16.1 | 0.00 | 0.00 | 0.00 | 40 | 1013.6 |
| 20260902122706 | 21 | 319 | 14.5 | 16.1 | 0.00 | 0.00 | 0.00 | 40 | 1013.6 |
| 20260902122206 | 21 | 314 | 14.5 | 16.1 | 0.00 | 0.00 | 0.00 | 41 | 1013.6 |
| 20260902121707 | 21 | 311 | 14.5 | 16.1 | 0.00 | 0.00 | 0.00 | 40 | 1013.7 |
| 20260902121206 | 22 | 309 | 16.1 | 19.3 | 0.00 | 0.00 | 0.00 | 38 | 1013.8 |
| 20260902120707 | 21 | 302 | 16.1 | 19.3 | 0.00 | 0.00 | 0.00 | 39 | 1013.8 |
| 20260902120207 | 21 | 295 | 16.1 | 19.3 | 0.00 | 0.00 | 0.00 | 40 | 1013.8 |
| 20260902115707 | 21 | 298 | 14.5 | 16.1 | 0.00 | 0.00 | 0.00 | 40 | 1013.8 |
| 20260902115207 | 21 | 301 | 12.9 | 14.5 | 0.00 | 0.00 | 0.00 | 40 | 1013.8 |
| 20260902114706 | 22 | 303 | 12.9 | 16.1 | 0.00 | 0.00 | 0.00 | 38 | 1013.9 |
| 20260902114206 | 22 | 296 | 14.5 | 14.5 | 0.00 | 0.00 | 0.00 | 38 | 1013.8 |
| 20260902113706 | 22 | 298 | 12.9 | 14.5 | 0.00 | 0.00 | 0.00 | 38 | 1013.9 |
| 20260902112707 | 22 | 302 | 12.9 | 14.5 | 0.00 | 0.00 | 0.00 | 38 | 1013.9 |
| 20260902111707 | 21 | 304 | 12.9 | 14.5 | 0.00 | 0.00 | 0.00 | 39 | 1014.2 |
| 20260902111207 | 21 | 310 | 12.9 | 14.5 | 0.00 | 0.00 | 0.00 | 39 | 1014.1 |
| 20260902110706 | 21 | 318 | 9.7 | 12.9 | 0.00 | 0.00 | 0.00 | 40 | 1014.1 |
| 20260902110206 | 21 | 297 | 9.7 | 11.3 | 0.00 | 0.00 | 0.00 | 40 | 1014.4 |
| 20260902105207 | 21 | 299 | 14.5 | 19.3 | 0.00 | 0.00 | 0.00 | 39 | 1014.3 |
| 20260902104706 | 21 | 306 | 16.1 | 19.3 | 0.00 | 0.00 | 0.00 | 40 | 1014.2 |
| 20260902104206 | 22 | 294 | 9.7 | 16.1 | 0.00 | 0.00 | 0.00 | 40 | 1014.3 |
| 20260902103706 | 22 | 270 | 14.5 | 16.1 | 0.00 | 0.00 | 0.00 | 38 | 1014.1 |
| 20260902103206 | 22 | 269 | 12.9 | 14.5 | 0.00 | 0.00 | 0.00 | 38 | 1014.1 |
| 20260902102706 | 22 | 269 | 11.3 | 14.5 | 0.00 | 0.00 | 0.00 | 37 | 1014.2 |
| 20260902102207 | 22 | 275 | 11.3 | 14.5 | 0.00 | 0.00 | 0.00 | 37 | 1014.0 |
| 20260902101706 | 22 | 288 | 11.3 | 12.9 | 0.00 | 0.00 | 0.00 | 37 | 1014.1 |
| 20260902101206 | 22 | 291 | 11.3 | 16.1 | 0.00 | 0.00 | 0.00 | 37 | 1014.0 |
| 20260902100706 | 22 | 292 | 12.9 | 14.5 | 0.00 | 0.00 | 0.00 | 37 | 1014.1 |
| 20260902100206 | 22 | 298 | 12.9 | 14.5 | 0.00 | 0.00 | 0.00 | 37 | 1013.9 |
| 20260902095706 | 22 | 299 | 12.9 | 14.5 | 0.00 | 0.00 | 0.00 | 37 | 1013.9 |
| 20260902095207 | 22 | 295 | 12.9 | 14.5 | 0.00 | 0.00 | 0.00 | 38 | 1013.9 |
| 20260902094206 | 22 | 284 | 11.3 | 12.9 | 0.00 | 0.00 | 0.00 | 37 | 1013.9 |
| 20260902093706 | 22 | 282 | 11.3 | 12.9 | 0.00 | 0.00 | 0.00 | 38 | 1013.9 |
| 20260902093206 | 22 | 288 | 11.3 | 12.9 | 0.00 | 0.00 | 0.00 | 37 | 1013.7 |
| 20260902092706 | 23 | 281 | 12.9 | 14.5 | 0.00 | 0.00 | 0.00 | 36 | 1013.7 |
| 20260902092206 | 23 | 270 | 11.3 | 14.5 | 0.00 | 0.00 | 0.00 | 36 | 1013.7 |
| 20260902091706 | 23 | 278 | 12.9 | 16.1 | 0.00 | 0.00 | 0.00 | 35 | 1013.6 |
| 20260902090706 | 23 | 288 | 12.9 | 16.1 | 0.00 | 0.00 | 0.00 | 36 | 1013.4 |
| 20260902090206 | 23 | 291 | 12.9 | 14.5 | 0.00 | 0.00 | 0.00 | 36 | 1013.4 |
| 20260902085706 | 22 | 302 | 12.9 | 16.1 | 0.00 | 0.00 | 0.00 | 37 | 1013.5 |
| 20260902085206 | 22 | 328 | 11.3 | 16.1 | 0.00 | 0.00 | 0.00 | 37 | 1013.4 |
| 20260902084706 | 23 | 301 | 8.0 | 9.7 | 0.00 | 0.00 | 0.00 | 36 | 1013.3 |
| 20260902084206 | 23 | 275 | 8.0 | 11.3 | 0.00 | 0.00 | 0.00 | 36 | 1013.2 |
| 20260902083706 | 23 | 267 | 11.3 | 12.9 | 0.00 | 0.00 | 0.00 | 36 | 1013.2 |
| 20260902083206 | 23 | 258 | 11.3 | 12.9 | 0.00 | 0.00 | 0.00 | 36 | 1013.2 |
| 20260902082206 | 23 | 265 | 11.3 | 14.5 | 0.00 | 0.00 | 0.00 | 35 | 1013.0 |
| 20260902081706 | 23 | 260 | 11.3 | 14.5 | 0.00 | 0.00 | 0.00 | 35 | 1013.0 |
| 20260902081206 | 23 | 260 | 12.9 | 16.1 | 0.00 | 0.00 | 0.00 | 34 | 1013.0 |
| 20260902080706 | 24 | 264 | 12.9 | 16.1 | 0.00 | 0.00 | 0.00 | 33 | 1013.3 |
| 20260902080206 | 24 | 262 | 12.9 | 19.3 | 0.00 | 0.00 | 0.00 | 33 | 1013.0 |
| 20260902073706 | 25 | 264 | 12.9 | 16.1 | 0.00 | 0.00 | 0.00 | 32 | 1012.6 |
| 20260902073206 | 25 | 264 | 12.9 | 16.1 | 0.00 | 0.00 | 0.00 | 32 | 1012.5 |
| 20260902072706 | 25 | 262 | 12.9 | 16.1 | 0.00 | 0.00 | 0.00 | 32 | 1012.7 |
| 20260902071706 | 25 | 263 | 14.5 | 16.1 | 0.00 | 0.00 | 0.00 | 31 | 1012.3 |
| 20260902071206 | 25 | 267 | 16.1 | 22.5 | 0.00 | 0.00 | 0.00 | 30 | 1012.4 |
| 20260902070705 | 25 | 264 | 16.1 | 24.1 | 0.00 | 0.00 | 0.00 | 30 | 1012.3 |
| 20260902070206 | 26 | 265 | 16.1 | 27.4 | 0.00 | 0.00 | 0.00 | 29 | 1012.4 |
| 20260902065706 | 26 | 273 | 22.5 | 32.2 | 0.00 | 0.00 | 0.00 | 29 | 1012.3 |
| 20260902065206 | 26 | 254 | 22.5 | 32.2 | 0.00 | 0.00 | 0.00 | 28 | 1012.2 |
| 20260902064205 | 26 | 268 | 20.9 | 33.8 | 0.00 | 0.00 | 0.00 | 28 | 1012.2 |
| 20260902063706 | 26 | 271 | 27.4 | 35.4 | 0.00 | 0.00 | 0.00 | 28 | 1012.3 |
| 20260902063206 | 26 | 261 | 32.2 | 41.8 | 0.00 | 0.00 | 0.00 | 28 | 1012.1 |
| 20260902062205 | 26 | 256 | 24.1 | 33.8 | 0.00 | 0.00 | 0.00 | 28 | 1012.2 |
| 20260902060706 | 26 | 274 | 17.7 | 27.4 | 0.00 | 0.00 | 0.00 | 28 | 1012.3 |
| 20260902060205 | 26 | 279 | 24.1 | 32.2 | 0.00 | 0.00 | 0.00 | 27 | 1012.2 |
| 20260902055705 | 26 | 270 | 20.9 | 29.0 | 0.00 | 0.00 | 0.00 | 27 | 1012.1 |
| 20260902055205 | 26 | 264 | 22.5 | 35.4 | 0.00 | 0.00 | 0.00 | 27 | 1012.0 |
| 20260902054705 | 26 | 281 | 20.9 | 32.2 | 0.00 | 0.00 | 0.00 | 28 | 1012.1 |
| 20260902054206 | 26 | 266 | 25.7 | 37.0 | 0.00 | 0.00 | 0.00 | 27 | 1012.1 |
| 20260902053705 | 26 | 276 | 27.4 | 40.2 | 0.00 | 0.00 | 0.00 | 27 | 1012.2 |
| 20260902053205 | 26 | 272 | 22.5 | 40.2 | 0.00 | 0.00 | 0.00 | 27 | 1012.1 |
| 20260902052706 | 26 | 246 | 22.5 | 35.4 | 0.00 | 0.00 | 0.00 | 27 | 1012.3 |
| 20260902052205 | 26 | 273 | 22.5 | 37.0 | 0.00 | 0.00 | 0.00 | 27 | 1012.3 |
| 20260902051706 | 26 | 271 | 16.1 | 27.4 | 0.00 | 0.00 | 0.00 | 27 | 1012.2 |
| 20260902051206 | 26 | 262 | 20.9 | 37.0 | 0.00 | 0.00 | 0.00 | 27 | 1012.1 |
| 20260902050706 | 26 | 277 | 29.0 | 38.6 | 0.00 | 0.00 | 0.00 | 27 | 1012.3 |
| 20260902050205 | 26 | 263 | 19.3 | 32.2 | 0.00 | 0.00 | 0.00 | 27 | 1012.1 |
| 20260902045706 | 26 | 248 | 19.3 | 32.2 | 0.00 | 0.00 | 0.00 | 27 | 1012.2 |
| 20260902045206 | 27 | 248 | 9.7 | 24.1 | 0.00 | 0.00 | 0.00 | 28 | 1012.1 |
| 20260902044705 | 26 | 234 | 12.9 | 19.3 | 0.00 | 0.00 | 0.00 | 29 | 1012.0 |
| 20260902043705 | 26 | 264 | 12.9 | 19.3 | 0.00 | 0.00 | 0.00 | 29 | 1012.1 |
| 20260902043205 | 26 | 241 | 12.9 | 19.3 | 0.00 | 0.00 | 0.00 | 28 | 1012.1 |
| 20260902042705 | 27 | 246 | 19.3 | 22.5 | 0.00 | 0.00 | 0.00 | 28 | 1012.1 |
| 20260902040705 | 26 | 269 | 20.9 | 29.0 | 0.00 | 0.00 | 0.00 | 29 | 1012.0 |
| 20260902040205 | 26 | 272 | 22.5 | 40.2 | 0.00 | 0.00 | 0.00 | 30 | 1012.1 |
| 20260902035706 | 26 | 296 | 16.1 | 32.2 | 0.00 | 0.00 | 0.00 | 30 | 1011.9 |
| 20260902035206 | 26 | 283 | 22.5 | 27.4 | 0.00 | 0.00 | 0.00 | 30 | 1012.1 |
| 20260902034205 | 25 | 297 | 22.5 | 38.6 | 0.00 | 0.00 | 0.00 | 29 | 1012.3 |
| 20260902033705 | 26 | 299 | 27.4 | 35.4 | 0.00 | 0.00 | 0.00 | 29 | 1012.3 |
| 20260902033205 | 26 | 267 | 14.5 | 20.9 | 0.00 | 0.00 | 0.00 | 30 | 1012.4 |
| 20260902032706 | 26 | 273 | 16.1 | 24.1 | 0.00 | 0.00 | 0.00 | 30 | 1012.5 |
| 20260902032205 | 26 | 289 | 25.7 | 32.2 | 0.00 | 0.00 | 0.00 | 29 | 1012.4 |
| 20260902031705 | 26 | 270 | 19.3 | 33.8 | 0.00 | 0.00 | 0.00 | 29 | 1012.6 |
| 20260902031205 | 26 | 287 | 11.3 | 27.4 | 0.00 | 0.00 | 0.00 | 30 | 1012.8 |
| 20260902030705 | 26 | 306 | 19.3 | 24.1 | 0.00 | 0.00 | 0.00 | 30 | 1013.0 |
| 20260902030206 | 26 | 327 | 19.3 | 32.2 | 0.00 | 0.00 | 0.00 | 30 | 1012.8 |
| 20260902025705 | 25 | 289 | 27.4 | 37.0 | 0.00 | 0.00 | 0.00 | 30 | 1012.9 |
| 20260902025205 | 25 | 316 | 20.9 | 32.2 | 0.00 | 0.00 | 0.00 | 30 | 1013.0 |
| 20260902024706 | 26 | 292 | 19.3 | 25.7 | 0.00 | 0.00 | 0.00 | 29 | 1013.2 |
| 20260902024205 | 26 | 267 | 22.5 | 33.8 | 0.00 | 0.00 | 0.00 | 29 | 1013.3 |
| 20260902023706 | 26 | 280 | 25.7 | 35.4 | 0.00 | 0.00 | 0.00 | 30 | 1013.2 |
| 20260902022705 | 26 | 280 | 14.5 | 38.6 | 0.00 | 0.00 | 0.00 | 31 | 1013.4 |
| 20260902022205 | 25 | 274 | 25.7 | 37.0 | 0.00 | 0.00 | 0.00 | 31 | 1013.5 |
| 20260902021205 | 25 | 301 | 19.3 | 35.4 | 0.00 | 0.00 | 0.00 | 32 | 1013.9 |
| 20260902020705 | 25 | 287 | 24.1 | 35.4 | 0.00 | 0.00 | 0.00 | 32 | 1013.9 |
| 20260902020205 | 25 | 297 | 27.4 | 35.4 | 0.00 | 0.00 | 0.00 | 32 | 1014.2 |
| 20260902015705 | 25 | 306 | 16.1 | 32.2 | 0.00 | 0.00 | 0.00 | 33 | 1014.1 |
| 20260902015205 | 25 | 300 | 19.3 | 25.7 | 0.00 | 0.00 | 0.00 | 33 | 1014.1 |
| 20260902014705 | 25 | 318 | 8.0 | 22.5 | 0.00 | 0.00 | 0.00 | 36 | 1014.2 |
| 20260902014205 | 25 | 339 | 16.1 | 22.5 | 0.00 | 0.00 | 0.00 | 37 | 1014.6 |
| 20260902013706 | 24 | 303 | 14.5 | 27.4 | 0.00 | 0.00 | 0.00 | 36 | 1014.4 |
| 20260902013205 | 24 | 343 | 12.9 | 24.1 | 0.00 | 0.00 | 0.00 | 37 | 1014.6 |
| 20260902012705 | 24 | 316 | 20.9 | 33.8 | 0.00 | 0.00 | 0.00 | 37 | 1014.8 |
| 20260902012205 | 24 | 314 | 22.5 | 32.2 | 0.00 | 0.00 | 0.00 | 37 | 1015.0 |
| 20260902011705 | 24 | 301 | 20.9 | 32.2 | 0.00 | 0.00 | 0.00 | 38 | 1015.1 |
| 20260902011205 | 23 | 313 | 19.3 | 29.0 | 0.00 | 0.00 | 0.00 | 38 | 1015.2 |
| 20260902010705 | 23 | 303 | 20.9 | 27.4 | 0.00 | 0.00 | 0.00 | 38 | 1015.3 |
| 20260902010205 | 23 | 298 | 19.3 | 27.4 | 0.00 | 0.00 | 0.00 | 39 | 1015.4 |
| 20260902005705 | 23 | 316 | 19.3 | 29.0 | 0.00 | 0.00 | 0.00 | 39 | 1015.4 |
| 20260902005205 | 23 | 327 | 22.5 | 32.2 | 0.00 | 0.00 | 0.00 | 40 | 1015.5 |
| 20260902004705 | 23 | 308 | 22.5 | 33.8 | 0.00 | 0.00 | 0.00 | 40 | 1015.4 |
| 20260902004206 | 23 | 301 | 25.7 | 33.8 | 0.00 | 0.00 | 0.00 | 40 | 1015.6 |
| 20260902003705 | 22 | 316 | 24.1 | 32.2 | 0.00 | 0.00 | 0.00 | 41 | 1015.7 |
| 20260902003205 | 22 | 320 | 20.9 | 29.0 | 0.00 | 0.00 | 0.00 | 41 | 1015.7 |
| 20260902002705 | 22 | 314 | 25.7 | 35.4 | 0.00 | 0.00 | 0.00 | 42 | 1015.9 |
| 20260902002205 | 22 | 315 | 33.8 | 38.6 | 0.00 | 0.00 | 0.00 | 42 | 1015.8 |
| 20260902001704 | 22 | 318 | 14.5 | 33.8 | 0.00 | 0.00 | 0.00 | 42 | 1015.7 |
| 20260902001205 | 22 | 321 | 20.9 | 32.2 | 0.00 | 0.00 | 0.00 | 42 | 1015.8 |
| 20260902000705 | 22 | 326 | 14.5 | 27.4 | 0.00 | 0.00 | 0.00 | 43 | 1016.1 |
| 20260901235705 | 22 | 319 | 29.0 | 38.6 | 0.00 | 0.00 | 0.00 | 41 | 1016.0 |
| 20260901235205 | 22 | 319 | 27.4 | 37.0 | 0.00 | 0.00 | 0.00 | 41 | 1016.0 |
| 20260901234705 | 22 | 322 | 22.5 | 32.2 | 0.00 | 0.00 | 0.00 | 42 | 1016.1 |
| 20260901234205 | 21 | 332 | 22.5 | 32.2 | 0.00 | 0.00 | 0.00 | 44 | 1016.1 |
| 20260901232705 | 21 | 329 | 16.1 | 29.0 | 0.00 | 0.00 | 0.00 | 46 | 1016.4 |
| 20260901232205 | 20 | 333 | 19.3 | 32.2 | 0.00 | 0.00 | 0.00 | 47 | 1016.5 |
| 20260901231205 | 20 | 328 | 16.1 | 20.9 | 0.00 | 0.00 | 0.00 | 50 | 1016.6 |
| 20260901230704 | 20 | 331 | 16.1 | 19.3 | 0.00 | 0.00 | 0.00 | 49 | 1016.5 |
| 20260901230204 | 20 | 335 | 12.9 | 19.3 | 0.00 | 0.00 | 0.00 | 49 | 1016.6 |
| 20260901225705 | 20 | 324 | 14.5 | 20.9 | 0.00 | 0.00 | 0.00 | 49 | 1016.5 |
| 20260901225205 | 19 | 330 | 17.7 | 22.5 | 0.00 | 0.00 | 0.00 | 50 | 1016.7 |
| 20260901224705 | 19 | 322 | 19.3 | 24.1 | 0.00 | 0.00 | 0.00 | 50 | 1016.6 |
| 20260901224204 | 19 | 323 | 19.3 | 22.5 | 0.00 | 0.00 | 0.00 | 50 | 1016.5 |
| 20260901223704 | 19 | 321 | 19.3 | 22.5 | 0.00 | 0.00 | 0.00 | 50 | 1016.6 |
| 20260901223206 | 18 | 326 | 16.1 | 22.5 | 0.00 | 0.00 | 0.00 | 51 | 1016.8 |
| 20260901222705 | 18 | 326 | 17.7 | 22.5 | 0.00 | 0.00 | 0.00 | 51 | 1016.6 |
| 20260901221704 | 18 | 328 | 16.1 | 22.5 | 0.00 | 0.00 | 0.00 | 52 | 1016.7 |
| 20260901221205 | 18 | 323 | 16.1 | 20.9 | 0.00 | 0.00 | 0.00 | 52 | 1016.8 |